KB6LA Weather Reports


time (UTC)temp
C
wind
direction
speed
KPH
gust
KPH
rain 1hr
cm
rain 24hr
cm
rain mn
cm
humidity
%
barometer
mb
20260507165239 18 281 6.4 11.3 0.00 0.00 0.00 73 1015.5
20260507163717 18 293 3.2 16.1 0.00 0.00 0.00 75 1015.5
20260507162702 17 211 8.0 11.3 0.00 0.00 0.00 77 1015.5
20260507162155 17 258 3.2 9.7 0.00 0.00 0.00 77 1015.5
20260507161648 17 272 1.6 11.3 0.00 0.00 0.00 78 1015.5
20260507161142 17 226 4.8 11.3 0.00 0.00 0.00 78 1015.5
20260507160634 17 182 3.2 9.7 0.00 0.00 0.00 77 1015.5
20260507160125 17 267 6.4 9.7 0.00 0.00 0.00 77 1015.5
20260507155111 17 245 4.8 11.3 0.00 0.00 0.00 78 1015.8
20260507154604 17 240 6.4 9.7 0.00 0.00 0.00 79 1015.5
20260507154057 17 235 3.2 9.7 0.00 0.00 0.00 79 1015.5
20260507153550 17 231 1.6 9.7 0.00 0.00 0.00 79 1015.5
20260507153042 17 337 3.2 9.7 0.00 0.00 0.00 79 1015.5
20260507152027 16 196 3.2 6.4 0.00 0.00 0.00 79 1015.5
20260507151521 16 148 4.8 6.4 0.00 0.00 0.00 79 1015.5
20260507151014 16 147 1.6 4.8 0.00 0.00 0.00 80 1015.5
20260507150507 16 219 1.6 6.4 0.00 0.00 0.00 80 1015.5
20260507145959 16 244 0.0 6.4 0.00 0.00 0.00 80 1015.5
20260507145452 16 175 3.2 4.8 0.00 0.00 0.00 79 1015.5
20260507144944 16 193 3.2 4.8 0.00 0.00 0.00 79 1015.5
20260507144437 16 239 1.6 3.2 0.00 0.00 0.00 79 1015.5
20260507143930 16 310 0.0 1.6 0.00 0.00 0.00 81 1015.5
20260507143422 16 311 0.0 1.6 0.00 0.00 0.00 80 1015.5
20260507142915 16 315 0.0 1.6 0.00 0.00 0.00 81 1015.5
20260507142408 16 338 1.6 1.6 0.00 0.00 0.00 81 1015.5
20260507141900 15 338 0.0 1.6 0.00 0.00 0.00 81 1015.1
20260507141353 15 338 0.0 1.6 0.00 0.00 0.00 82 1015.1
20260507140339 14 338 0.0 1.6 0.00 0.00 0.00 83 1015.1
20260507135831 14 338 0.0 3.2 0.00 0.00 0.00 84 1015.1
20260507134817 13 332 1.6 3.2 0.00 0.00 0.00 84 1015.1
20260507134310 13 333 1.6 1.6 0.00 0.00 0.00 85 1015.1
20260507133803 13 329 1.6 3.2 0.00 0.00 0.00 85 1015.1
20260507132747 12 330 0.0 3.2 0.00 0.00 0.00 86 1015.1
20260507132240 12 339 1.6 3.2 0.00 0.00 0.00 87 1015.1
20260507130718 12 328 3.2 3.2 0.00 0.00 0.00 87 1014.8
20260507125157 12 328 1.6 3.2 0.00 0.00 0.00 87 1014.8
20260507124650 12 328 3.2 3.2 0.00 0.00 0.00 87 1014.8
20260507124142 12 325 1.6 3.2 0.00 0.00 0.00 87 1014.8
20260507123635 12 323 1.6 3.2 0.00 0.00 0.00 87 1014.8
20260507123128 12 319 0.0 3.2 0.00 0.00 0.00 87 1014.5
20260507122113 12 323 0.0 3.2 0.00 0.00 0.00 87 1014.8
20260507121605 12 331 1.6 1.6 0.00 0.00 0.00 87 1014.8
20260507121058 12 331 0.0 1.6 0.00 0.00 0.00 87 1014.8
20260507120551 12 331 0.0 1.6 0.00 0.00 0.00 87 1014.8
20260507120044 12 331 0.0 0.0 0.00 0.00 0.00 86 1014.5
20260507115537 12 331 0.0 1.6 0.00 0.00 0.00 86 1014.8
20260507115029 12 331 0.0 1.6 0.00 0.00 0.00 86 1014.8
20260507114522 12 337 1.6 1.6 0.00 0.00 0.00 86 1014.8
20260507114015 12 337 0.0 1.6 0.00 0.00 0.00 86 1014.8
20260507113508 12 337 0.0 1.6 0.00 0.00 0.00 85 1014.8
20260507113001 12 337 0.0 1.6 0.00 0.00 0.00 85 1014.8
20260507112453 12 337 0.0 3.2 0.00 0.00 0.00 86 1014.8
20260507111946 12 332 1.6 3.2 0.00 0.00 0.00 86 1014.8
20260507110931 12 325 1.6 4.8 0.00 0.00 0.00 85 1015.1
20260507105916 12 329 1.6 3.2 0.00 0.00 0.00 85 1015.1
20260507105409 13 329 0.0 1.6 0.00 0.00 0.00 85 1014.8
20260507104902 13 329 0.0 1.6 0.00 0.00 0.00 86 1015.1
20260507104355 13 329 1.6 1.6 0.00 0.00 0.00 86 1015.1
20260507103848 13 329 0.0 1.6 0.00 0.00 0.00 86 1015.1
20260507103341 13 335 0.0 1.6 0.00 0.00 0.00 85 1015.1
20260507102833 13 336 0.0 1.6 0.00 0.00 0.00 86 1015.1
20260507101819 13 335 0.0 3.2 0.00 0.00 0.00 86 1015.1
20260507101311 13 4 0.0 3.2 0.00 0.00 0.00 87 1015.1
20260507100804 13 350 0.0 3.2 0.00 0.00 0.00 87 1015.1
20260507100257 13 335 0.0 1.6 0.00 0.00 0.00 88 1015.1
20260507095750 13 335 0.0 3.2 0.00 0.00 0.00 88 1015.1
20260507094735 13 327 0.0 1.6 0.00 0.00 0.00 88 1015.1
20260507094227 13 327 1.6 1.6 0.00 0.00 0.00 88 1015.5
20260507093720 13 327 0.0 1.6 0.00 0.00 0.00 88 1015.5
20260507093213 14 328 0.0 3.2 0.00 0.00 0.00 89 1015.5
20260507092159 14 353 0.0 1.6 0.00 0.00 0.00 89 1015.5
20260507091652 14 347 0.0 3.2 0.00 0.00 0.00 88 1015.5
20260507091145 14 349 1.6 3.2 0.00 0.00 0.00 88 1015.5
20260507090637 14 32 1.6 3.2 0.00 0.00 0.00 88 1015.5
20260507090130 14 0 1.6 3.2 0.00 0.00 0.00 88 1015.5
20260507085623 14 7 0.0 3.2 0.00 0.00 0.00 88 1015.8
20260507085116 14 0 0.0 3.2 0.00 0.00 0.00 88 1015.8
20260507084608 14 2 1.6 6.4 0.00 0.00 0.00 88 1015.8
20260507084100 14 141 3.2 6.4 0.00 0.00 0.00 88 1015.8
20260507083047 14 18 1.6 4.8 0.00 0.00 0.00 88 1015.8
20260507082539 14 8 1.6 4.8 0.00 0.00 0.00 88 1015.8
20260507081524 14 86 4.8 4.8 0.00 0.00 0.00 88 1016.2
20260507081017 14 45 1.6 4.8 0.00 0.00 0.00 88 1016.2
20260507080510 14 351 0.0 4.8 0.00 0.00 0.00 88 1015.8
20260507080004 14 52 1.6 4.8 0.00 0.00 0.00 89 1015.8
20260507075456 14 30 3.2 4.8 0.00 0.00 0.00 88 1015.8
20260507074949 14 40 3.2 4.8 0.00 0.00 0.00 89 1016.2
20260507074441 14 9 1.6 4.8 0.00 0.00 0.00 88 1016.2
20260507073934 14 356 0.0 4.8 0.00 0.00 0.00 88 1016.2
20260507073426 14 14 3.2 6.4 0.00 0.00 0.00 89 1016.2
20260507072919 14 13 4.8 6.4 0.00 0.00 0.00 89 1016.2
20260507072412 14 351 1.6 4.8 0.00 0.00 0.00 89 1016.2
20260507071904 15 356 1.6 4.8 0.00 0.00 0.00 89 1016.2
20260507071357 15 8 3.2 3.2 0.00 0.00 0.00 89 1016.2
20260507070850 14 349 0.0 3.2 0.00 0.00 0.00 89 1016.2
20260507065836 14 357 0.0 4.8 0.00 0.00 0.00 89 1016.2
20260507065329 14 357 0.0 4.8 0.00 0.00 0.00 89 1016.2
20260507064821 14 71 1.6 4.8 0.00 0.00 0.00 89 1016.2
20260507064314 14 79 3.2 4.8 0.00 0.00 0.00 89 1016.5
20260507063806 14 60 1.6 4.8 0.00 0.00 0.00 89 1016.5
20260507063259 14 117 3.2 4.8 0.00 0.00 0.00 89 1016.2
20260507062752 15 129 1.6 4.8 0.00 0.00 0.00 89 1016.5
20260507062244 15 17 1.6 6.4 0.00 0.00 0.00 89 1016.2
20260507061230 15 130 3.2 4.8 0.00 0.00 0.00 89 1016.2
20260507060216 15 75 3.2 6.4 0.00 0.00 0.00 89 1016.2
20260507055708 15 85 3.2 6.4 0.00 0.00 0.00 89 1016.5
20260507055201 15 29 3.2 6.4 0.00 0.00 0.00 89 1016.5
20260507054653 15 127 3.2 4.8 0.00 0.00 0.00 89 1016.2
20260507054146 15 97 3.2 4.8 0.00 0.00 0.00 89 1016.2
20260507053132 15 145 1.6 6.4 0.00 0.00 0.00 88 1016.2
20260507052625 15 155 1.6 6.4 0.00 0.00 0.00 88 1016.2
20260507052118 15 87 3.2 6.4 0.00 0.00 0.00 88 1016.2
20260507051103 15 156 3.2 6.4 0.00 0.00 0.00 88 1016.2
20260507050556 15 45 1.6 4.8 0.00 0.00 0.00 87 1016.2
20260507050049 15 135 3.2 4.8 0.00 0.00 0.00 87 1016.2
20260507045541 15 106 3.2 4.8 0.00 0.00 0.00 88 1016.2
20260507045034 15 100 4.8 4.8 0.00 0.00 0.00 88 1016.2
20260507044527 15 346 0.0 1.6 0.00 0.00 0.00 88 1015.8
20260507044020 15 349 0.0 1.6 0.00 0.00 0.00 88 1016.2
20260507043511 15 25 1.6 1.6 0.00 0.00 0.00 88 1016.2
20260507043004 15 285 0.0 3.2 0.00 0.00 0.00 88 1016.2
20260507042457 15 198 1.6 3.2 0.00 0.00 0.00 88 1016.2
20260507041443 15 246 0.0 4.8 0.00 0.00 0.00 88 1016.2
20260507040935 15 192 1.6 4.8 0.00 0.00 0.00 88 1015.8
20260507040428 15 197 3.2 3.2 0.00 0.00 0.00 88 1016.2
20260507035921 15 234 1.6 3.2 0.00 0.00 0.00 88 1015.8
20260507034359 15 202 3.2 3.2 0.00 0.00 0.00 88 1015.8
20260507033852 15 250 0.0 3.2 0.00 0.00 0.00 88 1015.8
20260507032838 15 251 3.2 3.2 0.00 0.00 0.00 87 1015.5
20260507032330 15 217 1.6 3.2 0.00 0.00 0.00 87 1015.5
20260507031823 15 247 1.6 4.8 0.00 0.00 0.00 87 1015.5
20260507030808 15 242 1.6 6.4 0.00 0.00 0.00 86 1015.1
20260507030301 15 288 0.0 6.4 0.00 0.00 0.00 86 1015.1
20260507025755 15 296 0.0 6.4 0.00 0.00 0.00 85 1015.1
20260507025246 15 238 3.2 11.3 0.00 0.00 0.00 85 1015.1
20260507024739 15 263 3.2 11.3 0.00 0.00 0.00 84 1015.1
20260507024232 15 299 0.0 9.7 0.00 0.00 0.00 83 1015.1
20260507023725 15 265 6.4 9.7 0.00 0.00 0.00 82 1015.1
20260507023217 15 228 3.2 9.7 0.00 0.00 0.00 82 1015.1
20260507022710 16 271 3.2 11.3 0.00 0.00 0.00 81 1015.1
20260507022203 16 252 3.2 14.5 0.00 0.00 0.00 80 1015.1
20260507021148 16 243 9.7 14.5 0.00 0.00 0.00 79 1015.1
20260507020134 16 193 6.4 17.7 0.00 0.00 0.00 77 1015.1
20260507015627 16 250 11.3 17.7 0.00 0.00 0.00 75 1015.1
20260507015120 16 251 9.7 20.9 0.00 0.00 0.00 75 1015.1
20260507014104 17 240 9.7 16.1 0.00 0.00 0.00 72 1015.1
20260507013557 17 260 9.7 14.5 0.00 0.00 0.00 72 1015.1
20260507013050 17 254 9.7 14.5 0.00 0.00 0.00 73 1015.1
20260507012543 17 222 8.0 22.5 0.00 0.00 0.00 73 1014.8
20260507012036 16 235 9.7 25.7 0.00 0.00 0.00 72 1015.1
20260507011528 17 237 17.7 22.5 0.00 0.00 0.00 72 1015.1
20260507011021 17 252 6.4 22.5 0.00 0.00 0.00 73 1014.8
20260507010514 17 250 12.9 20.9 0.00 0.00 0.00 73 1014.8
20260507005459 17 259 9.7 24.1 0.00 0.00 0.00 73 1014.8
20260507004951 17 242 14.5 24.1 0.00 0.00 0.00 73 1014.8
20260507004444 17 264 12.9 29.0 0.00 0.00 0.00 73 1014.8
20260507003937 17 271 16.1 29.0 0.00 0.00 0.00 73 1014.8
20260507003429 17 228 19.3 24.1 0.00 0.00 0.00 71 1015.1
20260507002922 17 202 17.7 22.5 0.00 0.00 0.00 70 1014.8
20260507002415 18 292 11.3 20.9 0.00 0.00 0.00 71 1014.8
20260507001908 18 265 6.4 20.9 0.00 0.00 0.00 71 1014.8
20260507001400 17 215 9.7 20.9 0.00 0.00 0.00 73 1014.8
20260507000854 17 261 8.0 24.1 0.00 0.00 0.00 73 1014.8
20260507000347 17 232 22.5 24.1 0.00 0.00 0.00 72 1014.8
20260506235839 17 216 14.5 27.4 0.00 0.00 0.00 73 1014.8
20260506235332 18 252 16.1 27.4 0.00 0.00 0.00 72 1014.8
20260506234825 18 188 8.0 24.1 0.00 0.00 0.00 71 1014.8
20260506234317 18 254 11.3 25.7 0.00 0.00 0.00 71 1014.8
20260506233810 18 243 14.5 25.7 0.00 0.00 0.00 69 1014.8
20260506233303 18 213 6.4 22.5 0.00 0.00 0.00 68 1014.8
20260506232247 18 217 9.7 27.4 0.00 0.00 0.00 63 1014.8
20260506231234 18 280 14.5 25.7 0.00 0.00 0.00 63 1014.8
20260506230726 18 210 14.5 25.7 0.00 0.00 0.00 61 1014.8
20260506230219 18 228 17.7 25.7 0.00 0.00 0.00 61 1015.1
20260506225712 18 224 12.9 25.7 0.00 0.00 0.00 66 1014.8
20260506225204 18 207 20.9 25.7 0.00 0.00 0.00 65 1015.1
20260506224657 18 248 17.7 25.7 0.00 0.00 0.00 64 1015.1
20260506224149 18 246 20.9 25.7 0.00 0.00 0.00 62 1015.1
20260506223642 18 248 12.9 25.7 0.00 0.00 0.00 62 1015.1
20260506223134 18 243 12.9 25.7 0.00 0.00 0.00 62 1015.1
20260506222627 18 221 17.7 25.7 0.00 0.00 0.00 61 1015.5
20260506222120 18 226 11.3 25.7 0.00 0.00 0.00 65 1015.5
20260506221613 18 229 22.5 25.7 0.00 0.00 0.00 63 1015.5
20260506221105 18 267 9.7 25.7 0.00 0.00 0.00 64 1015.5
20260506220558 18 226 17.7 25.7 0.00 0.00 0.00 61 1015.5
20260506215544 18 236 16.1 27.4 0.00 0.00 0.00 59 1015.8
20260506215037 18 238 11.3 27.4 0.00 0.00 0.00 62 1015.8
20260506214528 18 34 4.8 24.1 0.00 0.00 0.00 63 1015.8
20260506214021 19 249 17.7 24.1 0.00 0.00 0.00 63 1015.8
20260506213514 18 202 9.7 24.1 0.00 0.00 0.00 64 1015.8
20260506213007 18 237 14.5 24.1 0.00 0.00 0.00 66 1016.2
20260506212501 18 244 14.5 25.7 0.00 0.00 0.00 63 1016.2
20260506211952 18 238 6.4 24.1 0.00 0.00 0.00 64 1016.2
20260506211445 18 229 12.9 24.1 0.00 0.00 0.00 63 1016.2
20260506210938 18 296 11.3 24.1 0.00 0.00 0.00 63 1016.2
20260506210431 18 244 20.9 27.4 0.00 0.00 0.00 61 1016.2
20260506205923 18 240 16.1 27.4 0.00 0.00 0.00 62 1016.2
20260506205416 18 241 9.7 24.1 0.00 0.00 0.00 61 1016.2
20260506204909 18 239 14.5 20.9 0.00 0.00 0.00 61 1016.2
20260506203347 19 263 14.5 17.7 0.00 0.00 0.00 59 1016.5
20260506202840 18 265 11.3 20.9 0.00 0.00 0.00 62 1016.5
20260506202332 19 235 17.7 20.9 0.00 0.00 0.00 61 1016.5
20260506201824 18 242 12.9 24.1 0.00 0.00 0.00 62 1016.5
20260506201318 18 235 12.9 24.1 0.00 0.00 0.00 63 1016.8
20260506200810 18 252 14.5 22.5 0.00 0.00 0.00 63 1016.8
20260506200303 18 245 14.5 22.5 0.00 0.00 0.00 63 1016.8
20260506195756 18 210 14.5 24.1 0.00 0.00 0.00 64 1016.8
20260506195249 18 216 14.5 24.1 0.00 0.00 0.00 62 1016.8
20260506194742 18 277 12.9 22.5 0.00 0.00 0.00 62 1016.8
20260506194234 18 220 17.7 20.9 0.00 0.00 0.00 61 1016.8
20260506193727 18 300 9.7 22.5 0.00 0.00 0.00 64 1016.8
20260506193220 18 239 14.5 22.5 0.00 0.00 0.00 61 1016.8
20260506192712 18 220 9.7 22.5 0.00 0.00 0.00 65 1016.8
20260506191657 19 240 9.7 16.1 0.00 0.00 0.00 62 1017.2
20260506191150 18 234 11.3 20.9 0.00 0.00 0.00 62 1016.8
20260506190643 18 239 14.5 20.9 0.00 0.00 0.00 63 1017.2
20260506190136 18 253 12.9 25.7 0.00 0.00 0.00 64 1017.2
20260506185629 18 238 17.7 25.7 0.00 0.00 0.00 63 1017.2
20260506184614 18 222 11.3 17.7 0.00 0.00 0.00 64 1017.2
20260506184107 18 202 12.9 20.9 0.00 0.00 0.00 64 1017.2
20260506183600 17 202 12.9 20.9 0.00 0.00 0.00 65 1017.2
20260506183052 18 265 14.5 17.7 0.00 0.00 0.00 65 1017.2
20260506182545 18 257 12.9 24.1 0.00 0.00 0.00 66 1017.2
20260506181023 18 256 9.7 16.1 0.00 0.00 0.00 64 1017.5
20260506180515 18 243 12.9 20.9 0.00 0.00 0.00 65 1017.2
20260506180008 18 184 14.5 17.7 0.00 0.00 0.00 64 1017.2
20260506175501 18 202 8.0 16.1 0.00 0.00 0.00 67 1017.5
20260506174954 18 184 9.7 17.7 0.00 0.00 0.00 66 1017.5
20260506174446 18 204 9.7 17.7 0.00 0.00 0.00 67 1017.5
20260506173939 18 213 9.7 17.7 0.00 0.00 0.00 67 1017.2
20260506173431 18 255 9.7 16.1 0.00 0.00 0.00 65 1017.5
20260506172924 18 235 11.3 17.7 0.00 0.00 0.00 65 1017.2
20260506172417 19 167 8.0 17.7 0.00 0.00 0.00 65 1017.5
20260506171909 19 222 1.6 9.7 0.00 0.00 0.00 63 1017.2
20260506171402 19 151 3.2 11.3 0.00 0.00 0.00 60 1017.2
20260506170855 19 243 1.6 11.3 0.00 0.00 0.00 59 1017.2
20260506170348 20 1 3.2 9.7 0.00 0.00 0.00 57 1017.2
20260506165841 19 121 1.6 9.7 0.00 0.00 0.00 60 1017.2